Temp
12 12 12 12 12 12 12 12 12 13 14 15 15 16 16 16 15 15 15 15 16 16
12 12 12 12 13 12 12 12 13 13 14 14 15 15 16 16 14 14 15 16 15 16
12 12 12 12 12 12 13 13 13 13 14 14 14 15 15 15 14 14 13 14 16 16
13 12 13 13 12 12 12 13 13 13 14 14 14 14 14 13 13 13 13 15 16 16
13 13 13 13 13 13 13 13 13 14 14 14 14 14 14 14 14 14 14 14 14 15
13 14 13 13 13 13 13 13 13 13 13 13 14 14 14 15 14 14 14 14 14 14
13 13 14 13 13 14 14 13 13 13 13 13 13 13 13 13 14 13 13 14 14 14
13 13 13 13 13 13 14 14 14 14 13 13 13 13 12 12 12 12 12 13 13 13
12 12 12 13 13 13 13 13 13 13 13 13 13 12 12 12 12 12 12 12 12 12
12 12 12 12 12 12 12 13 13 13 13 13 13 13 13 13 12 12 12 12 11 11
7 8 9 11 12 12 12 12 12 12 12 12 12 12 12 13 12 12 12 12 12 11
4 4 5 5 7 8 9 11 12 12 12 12 10 10 11 12 12 11 11 12 12 11
1 1 1 2 2 4 5 6 7 6 5 4 4 4 5 7 8 8 10 11 8 7
-2 -1 -1 0 1 1 1 1 1 1 -0 0 0 0 3 5 7 6 4 1 -1 -2
Height
725 729 734 737 741 746 751 755 760 766 771 774 779 784 788 792 795 799 804 807 807 809
723 727 732 737 741 745 749 754 758 763 767 770 775 779 783 787 792 797 800 801 804 805
720 725 730 735 739 743 748 753 756 760 764 769 772 776 780 783 787 792 795 797 798 800
718 723 727 732 736 740 744 750 754 757 762 766 770 773 776 780 783 786 789 791 792 793
717 720 724 727 732 736 740 745 748 753 757 761 764 768 771 774 777 779 782 783 784 785
717 720 722 726 729 733 737 741 745 749 752 755 757 760 763 766 768 770 771 774 775 777
717 719 722 725 728 732 735 738 740 743 746 748 751 754 757 759 762 763 765 766 767 768
713 717 720 723 726 728 731 733 736 739 742 743 745 746 749 753 756 757 758 758 758 759
709 713 715 718 720 723 725 728 731 732 734 735 736 739 742 746 748 749 749 748 748 748
708 710 712 714 716 719 721 723 724 726 728 729 729 732 735 737 739 739 738 738 738 738
709 710 710 710 712 713 715 716 718 720 722 723 723 726 726 727 728 728 727 727 726 725
713 712 713 712 710 710 710 711 712 715 716 717 717 715 715 717 718 718 717 717 718 716
716 715 715 716 714 712 710 709 708 708 711 712 713 712 710 709 710 711 711 711 708 705
720 719 718 717 717 714 712 712 712 713 715 715 716 715 711 708 706 706 707 708 709 711
Wind_Speed
17 18 19 22 22 24 24 26 30 32 32 34 33 35 31 33 24 25 30 31 40 41
24 22 21 22 24 24 26 26 31 36 30 29 32 33 36 32 32 30 33 37 38 37
24 26 24 24 28 29 29 28 30 33 33 27 29 32 36 36 39 42 42 42 41 39
23 23 24 25 25 27 28 28 26 30 31 31 31 32 34 35 37 41 41 45 41 40
26 24 25 25 26 26 28 30 32 32 34 34 34 35 36 36 35 40 39 38 38 40
24 25 25 26 25 25 28 30 31 33 35 36 38 37 38 39 40 39 41 39 39 40
23 25 27 26 26 27 28 29 31 34 36 37 37 38 39 41 42 39 38 40 42 42
26 27 28 28 28 28 31 32 32 32 34 37 39 39 37 36 35 36 37 39 44 44
23 24 28 29 31 31 31 33 33 33 34 35 36 35 38 38 33 34 36 39 40 43
10 20 22 26 27 27 28 31 33 34 34 34 38 39 41 43 44 38 38 39 39 39
14 9 3 3 19 24 28 31 31 30 30 32 33 32 38 43 45 44 44 42 42 42
14 14 14 12 9 5 6 10 21 23 25 25 16 24 30 36 42 40 43 44 42 33
15 15 14 13 15 12 7 6 4 6 5 6 3 10 13 17 22 26 26 21 20 23
18 16 17 16 18 17 17 14 14 14 16 18 21 18 20 16 9 7 4 6 14 17
Wind_Direction
189 188 192 190 186 192 195 199 199 207 212 211 213 216 210 211 215 224 230 227 217 215
204 202 198 200 207 203 205 205 202 210 211 214 216 218 216 220 221 222 232 234 231 222
197 205 211 207 208 211 213 211 210 212 211 212 216 218 216 220 223 221 232 238 237 239
204 204 213 216 214 215 216 212 213 214 216 221 223 221 219 217 218 224 226 237 241 243
212 213 212 222 225 225 223 223 222 222 224 225 228 231 229 228 228 232 233 238 239 244
205 212 215 224 231 231 230 230 229 229 230 231 233 232 233 235 234 234 238 236 238 241
208 212 221 222 225 232 236 236 235 235 235 234 233 235 234 235 237 238 241 245 246 246
219 221 222 223 224 227 234 239 241 242 240 240 239 237 237 237 239 241 244 247 249 248
226 228 228 229 231 230 230 234 236 235 237 239 240 240 241 239 238 241 242 245 248 250
229 237 242 243 237 234 234 234 233 234 233 236 243 248 251 248 244 242 242 244 247 249
35 30 8 286 240 243 242 239 238 237 237 242 247 248 250 250 244 241 243 244 246 246
37 32 24 19 3 338 318 255 248 242 244 247 244 251 246 247 247 242 244 247 250 259
40 41 34 27 20 20 15 360 71 134 104 59 227 309 300 280 262 252 253 250 245 258
47 42 42 43 42 46 50 64 69 70 59 50 40 23 20 12 337 272 236 65 43 34